| time (UTC) | temp F | wind direction | speed knots | gust knots | rain 1hr in | rain 24hr in | rain mn in | humidity % | barometer mb |
| 20260508035403 | 47 | 63 | 0.9 | 3.5 | 0.00 | 0.03 | 0.00 | 88 | 1011.9 |
| 20260508032918 | 47 | 58 | 1.7 | 5.2 | 0.00 | 0.03 | 0.00 | 89 | 1012.2 |
| 20260508032018 | 47 | 59 | 1.7 | 3.5 | 0.00 | 0.03 | 0.00 | 89 | 1012.3 |
| 20260508030903 | 47 | 58 | 0.9 | 3.5 | 0.00 | 0.03 | 0.00 | 89 | 1012.3 |
| 20260508030003 | 47 | 52 | 0.9 | 3.5 | 0.00 | 0.03 | 0.00 | 89 | 1012.5 |
| 20260508025403 | 47 | 51 | 1.7 | 3.5 | 0.00 | 0.03 | 0.00 | 88 | 1012.4 |
| 20260508022918 | 47 | 47 | 3.5 | 6.1 | 0.00 | 0.03 | 0.00 | 87 | 1012.6 |
| 20260508021803 | 47 | 59 | 1.7 | 3.5 | 0.00 | 0.03 | 0.00 | 88 | 1012.7 |
| 20260508021116 | 48 | 58 | 1.7 | 3.5 | 0.00 | 0.03 | 0.00 | 88 | 1012.7 |
| 20260508020003 | 48 | 74 | 0.9 | 5.2 | 0.00 | 0.03 | 0.00 | 87 | 1012.8 |
| 20260508015403 | 48 | 65 | 1.7 | 3.5 | 0.00 | 0.03 | 0.00 | 87 | 1012.9 |
| 20260508013603 | 48 | 78 | 1.7 | 6.1 | 0.00 | 0.03 | 0.00 | 87 | 1012.9 |
| 20260508012703 | 48 | 76 | 1.7 | 6.1 | 0.00 | 0.03 | 0.00 | 87 | 1013.0 |
| 20260508011803 | 48 | 77 | 1.7 | 6.1 | 0.00 | 0.03 | 0.00 | 88 | 1013.0 |
| 20260508010903 | 48 | 77 | 1.7 | 6.1 | 0.00 | 0.03 | 0.00 | 88 | 1013.2 |
| 20260508010217 | 48 | 68 | 1.7 | 6.1 | 0.00 | 0.03 | 0.00 | 88 | 1013.1 |
| 20260508004503 | 49 | 76 | 1.7 | 5.2 | 0.00 | 0.03 | 0.00 | 87 | 1013.7 |
| 20260508003603 | 49 | 79 | 0.9 | 5.2 | 0.00 | 0.03 | 0.00 | 87 | 1013.4 |
| 20260508002703 | 48 | 80 | 0.9 | 2.6 | 0.00 | 0.03 | 0.00 | 88 | 1013.6 |
| 20260508001803 | 48 | 77 | 0.9 | 2.6 | 0.00 | 0.03 | 0.00 | 89 | 1013.9 |
| 20260508000903 | 49 | 65 | 0.9 | 2.6 | 0.00 | 0.03 | 0.00 | 89 | 1013.8 |
| 20260507234503 | 49 | 77 | 0.9 | 3.5 | 0.00 | 0.03 | 0.00 | 88 | 1013.6 |
| 20260507233817 | 49 | 71 | 0.9 | 3.5 | 0.00 | 0.03 | 0.00 | 89 | 1013.8 |
| 20260507232703 | 49 | 71 | 1.7 | 5.2 | 0.00 | 0.03 | 0.00 | 88 | 1013.9 |
| 20260507232018 | 49 | 76 | 0.9 | 3.5 | 0.00 | 0.03 | 0.00 | 89 | 1014.0 |
| 20260507230004 | 49 | 72 | 1.7 | 5.2 | 0.00 | 0.03 | 0.00 | 88 | 1014.0 |
| 20260507225403 | 49 | 75 | 0.9 | 3.5 | 0.00 | 0.03 | 0.00 | 88 | 1014.1 |
| 20260507224504 | 49 | 76 | 0.9 | 3.5 | 0.00 | 0.03 | 0.00 | 89 | 1014.1 |
| 20260507223603 | 49 | 77 | 0.9 | 3.5 | 0.00 | 0.03 | 0.00 | 89 | 1014.0 |
| 20260507222703 | 49 | 73 | 0.9 | 3.5 | 0.00 | 0.03 | 0.00 | 89 | 1014.1 |
| 20260507220903 | 48 | 57 | 1.7 | 2.6 | 0.00 | 0.03 | 0.00 | 90 | 1014.1 |
| 20260507220004 | 48 | 49 | 1.7 | 2.6 | 0.00 | 0.03 | 0.00 | 90 | 1014.1 |
| 20260507215403 | 47 | 48 | 1.7 | 2.6 | 0.00 | 0.03 | 0.03 | 91 | 1014.0 |
| 20260507214503 | 47 | 58 | 0.9 | 2.6 | 0.00 | 0.03 | 0.03 | 92 | 1014.0 |
| 20260507213603 | 47 | 58 | 1.7 | 2.6 | 0.00 | 0.03 | 0.03 | 91 | 1014.1 |
| 20260507211803 | 47 | 42 | 1.7 | 2.6 | 0.00 | 0.03 | 0.03 | 91 | 1014.1 |
| 20260507210903 | 47 | 43 | 0.9 | 2.6 | 0.00 | 0.03 | 0.03 | 91 | 1014.2 |
| 20260507210003 | 47 | 49 | 0.9 | 2.6 | 0.00 | 0.03 | 0.03 | 90 | 1014.1 |
| 20260507205403 | 48 | 52 | 0.9 | 0.9 | 0.00 | 0.03 | 0.03 | 90 | 1014.1 |
| 20260507204503 | 49 | 32 | 0.0 | 2.6 | 0.00 | 0.03 | 0.03 | 89 | 1013.9 |
| 20260507203603 | 49 | 32 | 1.7 | 2.6 | 0.00 | 0.03 | 0.03 | 90 | 1013.6 |
| 20260507201118 | 50 | 66 | 0.9 | 1.7 | 0.00 | 0.03 | 0.03 | 88 | 1013.6 |
| 20260507200003 | 50 | 65 | 0.9 | 2.6 | 0.00 | 0.03 | 0.03 | 87 | 1013.0 |
| 20260507195403 | 50 | 65 | 0.9 | 2.6 | 0.00 | 0.03 | 0.03 | 88 | 1013.0 |
| 20260507194503 | 51 | 67 | 0.9 | 2.6 | 0.00 | 0.03 | 0.03 | 88 | 1012.8 |
| 20260507193817 | 51 | 72 | 0.9 | 1.7 | 0.00 | 0.03 | 0.03 | 87 | 1012.8 |
| 20260507191803 | 52 | 58 | 2.6 | 5.2 | 0.00 | 0.03 | 0.03 | 84 | 1012.7 |
| 20260507190903 | 53 | 58 | 1.7 | 6.1 | 0.00 | 0.03 | 0.03 | 83 | 1012.6 |
| 20260507190004 | 54 | 59 | 2.6 | 7.0 | 0.00 | 0.03 | 0.03 | 82 | 1012.8 |
| 20260507185618 | 54 | 58 | 2.6 | 7.0 | 0.00 | 0.03 | 0.03 | 81 | 1012.5 |
| 20260507184503 | 55 | 56 | 3.5 | 7.0 | 0.00 | 0.03 | 0.03 | 80 | 1012.5 |
| 20260507181803 | 57 | 83 | 0.9 | 1.7 | 0.00 | 0.03 | 0.03 | 77 | 1012.4 |
| 20260507181117 | 57 | 51 | 0.9 | 2.6 | 0.00 | 0.03 | 0.03 | 78 | 1012.3 |
| 20260507180218 | 56 | 41 | 2.6 | 5.2 | 0.00 | 0.03 | 0.03 | 78 | 1012.3 |
| 20260507175403 | 56 | 54 | 2.6 | 5.2 | 0.00 | 0.03 | 0.03 | 78 | 1012.2 |
| 20260507174717 | 55 | 58 | 1.7 | 5.2 | 0.00 | 0.03 | 0.03 | 78 | 1012.1 |
| 20260507173603 | 55 | 74 | 3.5 | 7.8 | 0.00 | 0.03 | 0.03 | 78 | 1012.2 |
| 20260507170903 | 55 | 60 | 3.5 | 9.6 | 0.00 | 0.03 | 0.03 | 79 | 1012.9 |
| 20260507170218 | 55 | 61 | 4.3 | 9.6 | 0.00 | 0.03 | 0.03 | 78 | 1012.7 |
| 20260507165403 | 56 | 60 | 3.5 | 9.6 | 0.00 | 0.03 | 0.03 | 75 | 1012.6 |
| 20260507164503 | 56 | 44 | 2.6 | 7.8 | 0.00 | 0.03 | 0.03 | 74 | 1012.8 |
| 20260507162703 | 54 | 56 | 2.6 | 6.1 | 0.00 | 0.03 | 0.03 | 79 | 1012.9 |
| 20260507161803 | 54 | 64 | 3.5 | 7.8 | 0.00 | 0.03 | 0.03 | 81 | 1013.2 |
| 20260507160904 | 54 | 46 | 4.3 | 9.6 | 0.00 | 0.03 | 0.03 | 80 | 1013.0 |
| 20260507160217 | 54 | 40 | 4.3 | 9.6 | 0.00 | 0.03 | 0.03 | 81 | 1013.3 |
| 20260507155403 | 54 | 36 | 5.2 | 8.7 | 0.01 | 0.03 | 0.03 | 81 | 1013.2 |
| 20260507152703 | 53 | 39 | 4.3 | 9.6 | 0.02 | 0.03 | 0.03 | 85 | 1013.2 |
| 20260507151803 | 52 | 34 | 3.5 | 7.0 | 0.03 | 0.03 | 0.03 | 86 | 1013.2 |
| 20260507151118 | 52 | 39 | 2.6 | 7.0 | 0.03 | 0.03 | 0.03 | 87 | 1013.2 |
| 20260507150003 | 52 | 35 | 2.6 | 7.0 | 0.02 | 0.02 | 0.02 | 86 | 1013.2 |
| 20260507145403 | 52 | 34 | 3.5 | 7.0 | 0.02 | 0.02 | 0.02 | 87 | 1013.4 |
| 20260507143817 | 54 | 260 | 0.0 | 1.7 | 0.02 | 0.02 | 0.02 | 89 | 1013.0 |
| 20260507142703 | 54 | 168 | 6.1 | 14.8 | 0.01 | 0.01 | 0.02 | 84 | 1013.1 |
| 20260507142018 | 56 | 168 | 6.1 | 15.6 | 0.00 | 0.00 | 0.00 | 74 | 1012.8 |
| 20260507140903 | 62 | 76 | 0.9 | 3.5 | 0.00 | 0.00 | 0.00 | 62 | 1011.8 |
| 20260507135403 | 61 | 78 | 1.7 | 5.2 | 0.00 | 0.00 | 0.00 | 63 | 1011.8 |
| 20260507132703 | 61 | 73 | 2.6 | 8.7 | 0.00 | 0.00 | 0.00 | 62 | 1011.6 |
| 20260507131803 | 62 | 74 | 2.6 | 9.6 | 0.00 | 0.00 | 0.00 | 64 | 1011.6 |
| 20260507130903 | 61 | 61 | 6.1 | 13.0 | 0.00 | 0.00 | 0.00 | 65 | 1011.8 |
| 20260507130004 | 61 | 64 | 5.2 | 12.2 | 0.00 | 0.00 | 0.00 | 66 | 1011.8 |
| 20260507125403 | 61 | 71 | 3.5 | 7.8 | 0.00 | 0.00 | 0.00 | 65 | 1011.8 |
| 20260507124503 | 62 | 29 | 3.5 | 10.4 | 0.00 | 0.00 | 0.00 | 65 | 1011.8 |
| 20260507121803 | 64 | 216 | 3.5 | 7.8 | 0.00 | 0.00 | 0.00 | 46 | 1012.1 |
| 20260507120903 | 66 | 184 | 1.7 | 7.8 | 0.00 | 0.00 | 0.00 | 47 | 1012.3 |
| 20260507120004 | 63 | 208 | 3.5 | 7.8 | 0.00 | 0.00 | 0.00 | 49 | 1012.5 |
| 20260507115618 | 64 | 214 | 2.6 | 7.8 | 0.00 | 0.00 | 0.00 | 53 | 1012.3 |
| 20260507114503 | 65 | 214 | 3.5 | 6.1 | 0.00 | 0.00 | 0.00 | 47 | 1012.6 |
| 20260507113818 | 63 | 205 | 2.6 | 7.0 | 0.00 | 0.00 | 0.00 | 50 | 1012.8 |
| 20260507112918 | 63 | 200 | 3.5 | 8.7 | 0.00 | 0.00 | 0.00 | 50 | 1012.9 |
| 20260507111803 | 62 | 234 | 3.5 | 8.7 | 0.00 | 0.00 | 0.00 | 51 | 1013.0 |
| 20260507110903 | 62 | 200 | 4.3 | 7.8 | 0.00 | 0.00 | 0.00 | 54 | 1012.9 |
| 20260507110004 | 62 | 208 | 4.3 | 7.8 | 0.00 | 0.00 | 0.00 | 54 | 1013.1 |
| 20260507104717 | 61 | 259 | 2.6 | 7.8 | 0.00 | 0.00 | 0.00 | 55 | 1013.0 |
| 20260507103603 | 62 | 185 | 2.6 | 6.1 | 0.00 | 0.00 | 0.00 | 59 | 1012.9 |
| 20260507102703 | 62 | 221 | 1.7 | 5.2 | 0.00 | 0.00 | 0.00 | 58 | 1013.1 |
| 20260507101803 | 60 | 214 | 3.5 | 7.0 | 0.00 | 0.00 | 0.00 | 60 | 1013.0 |
| 20260507100903 | 62 | 189 | 0.9 | 2.6 | 0.00 | 0.00 | 0.00 | 56 | 1013.2 |
| 20260507100004 | 60 | 175 | 2.6 | 5.2 | 0.00 | 0.00 | 0.00 | 60 | 1013.4 |
| 20260507095403 | 60 | 177 | 2.6 | 6.1 | 0.00 | 0.00 | 0.00 | 59 | 1013.1 |
| 20260507094503 | 61 | 106 | 1.7 | 3.5 | 0.00 | 0.00 | 0.00 | 60 | 1013.2 |
| 20260507093603 | 60 | 129 | 1.7 | 7.8 | 0.00 | 0.00 | 0.00 | 63 | 1013.5 |
| 20260507092703 | 59 | 141 | 2.6 | 6.1 | 0.00 | 0.00 | 0.00 | 64 | 1013.5 |
| 20260507090903 | 59 | 171 | 2.6 | 7.0 | 0.00 | 0.00 | 0.00 | 67 | 1013.5 |
| 20260507085403 | 59 | 157 | 2.6 | 7.8 | 0.00 | 0.00 | 0.00 | 65 | 1013.7 |
| 20260507084503 | 58 | 190 | 3.5 | 7.0 | 0.00 | 0.00 | 0.00 | 71 | 1013.4 |
| 20260507083603 | 59 | 174 | 1.7 | 3.5 | 0.00 | 0.00 | 0.00 | 67 | 1013.7 |
| 20260507080903 | 56 | 117 | 0.9 | 2.6 | 0.00 | 0.00 | 0.00 | 71 | 1013.2 |
| 20260507080217 | 56 | 150 | 1.7 | 3.5 | 0.00 | 0.00 | 0.00 | 71 | 1013.2 |
| 20260507075403 | 55 | 138 | 0.9 | 3.5 | 0.00 | 0.00 | 0.00 | 73 | 1013.4 |
| 20260507074503 | 56 | 114 | 0.9 | 3.5 | 0.00 | 0.00 | 0.00 | 72 | 1013.3 |
| 20260507073818 | 56 | 113 | 1.7 | 3.5 | 0.00 | 0.00 | 0.00 | 73 | 1013.1 |
| 20260507072917 | 55 | 90 | 0.9 | 2.6 | 0.00 | 0.00 | 0.00 | 73 | 1013.4 |
| 20260507071803 | 55 | 83 | 0.9 | 2.6 | 0.00 | 0.00 | 0.00 | 75 | 1013.3 |
| 20260507070903 | 54 | 61 | 0.9 | 3.5 | 0.00 | 0.00 | 0.00 | 78 | 1013.2 |
| 20260507070007 | 52 | 54 | 1.7 | 5.2 | 0.00 | 0.00 | 0.00 | 82 | 1013.2 |
| 20260507065403 | 52 | 61 | 1.7 | 3.5 | 0.00 | 0.00 | 0.00 | 81 | 1013.4 |
| 20260507064718 | 51 | 62 | 0.9 | 3.5 | 0.00 | 0.00 | 0.00 | 82 | 1013.2 |
| 20260507063817 | 51 | 67 | 0.9 | 2.6 | 0.00 | 0.00 | 0.00 | 82 | 1013.4 |
| 20260507061803 | 50 | 99 | 0.0 | 0.9 | 0.00 | 0.00 | 0.00 | 86 | 1013.2 |
| 20260507060903 | 48 | 69 | 0.0 | 1.7 | 0.00 | 0.00 | 0.00 | 88 | 1013.2 |
| 20260507060003 | 48 | 71 | 0.9 | 1.7 | 0.00 | 0.00 | 0.00 | 89 | 1013.4 |
| 20260507055403 | 47 | 57 | 0.9 | 2.6 | 0.00 | 0.00 | 0.00 | 91 | 1013.4 |
| 20260507054503 | 46 | 51 | 1.7 | 2.6 | 0.00 | 0.00 | 0.00 | 92 | 1013.3 |
| 20260507053603 | 45 | 60 | 0.9 | 2.6 | 0.00 | 0.00 | 0.00 | 94 | 1013.3 |
| 20260507052918 | 45 | 63 | 0.9 | 2.6 | 0.00 | 0.00 | 0.00 | 95 | 1013.3 |
| 20260507051803 | 44 | 63 | 0.9 | 1.7 | 0.00 | 0.00 | 0.00 | 95 | 1013.1 |
| 20260507050903 | 45 | 62 | 0.9 | 5.2 | 0.00 | 0.00 | 0.00 | 95 | 1013.2 |
| 20260507050003 | 44 | 54 | 0.9 | 2.6 | 0.00 | 0.00 | 0.00 | 96 | 1013.3 |
| 20260507042703 | 45 | 52 | 3.5 | 7.8 | 0.00 | 0.00 | 0.00 | 96 | 1013.4 |
| 20260507041803 | 45 | 52 | 2.6 | 8.7 | 0.00 | 0.00 | 0.00 | 96 | 1013.3 |
| 20260507041117 | 45 | 47 | 1.7 | 7.8 | 0.00 | 0.00 | 0.00 | 96 | 1013.3 |